Powrót do katalogu

BREEZE-M DEB

LostHEO
NORAD 48529·DEBRIS·🇷🇺 Russia

Wystrzelony Feb 28, 2006 z Baikonur Cosmodrome

Loading…

Następne Przeloty (najbliższe 24 godziny)

TLE

NieaktualneSource: Space-Track

Epoka: May 4, 2021, 08:07 UTC

1 48529U 06006DL  21124.33887427  .00001752  00000-0  87585-2 0  9992
2 48529  52.1576 338.0063 5026166 181.8541 357.8508  5.17106126927758

Śledź BREEZE-M DEB w czasie rzeczywistym z AllMySat

Download on the App Store